Regional Weather Roundup
Issued by NWS Charleston, SC

Current Version | Previous Version | Text Only | Print | Product List | Glossary Off
Versions: 1 2 3 4 5 6 7 8 9 10 11 12 13 14 15 16 17 18 19 20 21 22 23 24 25 26 27 28 29 30 31 32 33 34 35 36 37 38 39 40 41 42 43 44 45 46 47 48 49 50
401 ASUS42 KCHS 090412 RWRCHS REGIONAL WEATHER ROUNDUP NATIONAL WEATHER SERVICE CHARLESTON SC 1100 PM EST MON FEB 08 2016 NOTE: "FAIR" INDICATES FEW OR NO CLOUDS BELOW 12,000 FEET WITH NO SIGNIFICANT WEATHER AND/OR OBSTRUCTIONS TO VISIBILITY. NOT ALL STATIONS ARE QUALITY CONTROLLED BY THE NATIONAL WEATHER SERVICE. USE DATA WITH CAUTION...ESPECIALLY DEWPOINT OBSERVATIONS. NOTICE: OBSERVATIONS FOR THE SAVANNAH-HILTON HEAD INTERNATIONAL AIRPORT /KSAV/ HAVE BEEN TEMPORARILY REMOVED DUE TO AN ERRONEOUS TEMPERATURE SENSOR. THE OBSERVATION WILL BE REINTRODUCED ONCE REPAIRS ARE COMPLETE. SCZ027-030-031-034>040-042>050-090500- ...SOUTHEAST SOUTH CAROLINA... CITY SKY/WX TMP DP RH WIND PRES REMARKS N CHARLESTON CLOUDY 46 42 86 W8 29.73R WATERFRONT PRK N/A 46 43 89 CALM 29.56F MOUNT PLEASANT MOCLDY 45 43 93 CALM 29.72S JOHNS ISLAND CLOUDY 45 45 100 W5 29.73R PINOPOLIS N/A 46 43 87 SW10 29.62F MONCKS CORNER FAIR 41 37 87 W3 29.72R SUMMERVILLE FAIR 43 43 100 SW5 29.74R BEAUFORT MCAS PTCLDY 45 40 82 W10 29.75F BEAUFORT ARPT FAIR 45 41 87 W8 29.74F HILTON HEAD IS PTCLDY 46 43 87 SW7 29.77S WALTERBORO PTCLDY 45 43 93 W6 29.76R ALLENDALE FAIR 41 37 87 CALM 29.76S ...SOUTHERN MIDLANDS AND PEE DEE... CITY SKY/WX TMP DP RH WIND PRES REMARKS GEORGETOWN NOT AVBL KINGSTREE NOT AVBL ORANGEBURG CLEAR 44 35 70 W9 29.74R BARNWELL FAIR 43 34 70 SW6 29.76S AIKEN FAIR 41 21 45 W10 29.76S MANNING FAIR 43 37 81 SW5 29.71R COLUMBIA CLEAR 37 29 72 W6 29.71S WCI 32 SUMTER CLEAR 41 35 80 W9 29.68S FLORENCE CLOUDY 42 40 92 SW6 29.67F MYRTLE BEACH CLOUDY 46 39 76 SW6 29.70F N MYRTLE BEACH CLOUDY 46 42 86 SW7 29.67F $$ GAZ063-065-086>088-099>101-113>116-118-119-134>141-150-090500- ...SOUTHEAST GEORGIA... CITY SKY/WX TMP DP RH WIND PRES REMARKS SAVANNAH ARPT PTCLDY 43 40 89 W8 29.78S HUNTER AAF PTCLDY 44 43 98 SW7 29.76R FORT STEWART MOCLDY 42 40 93 W6 29.78R STATESBORO CLEAR 46 31 56 W6 29.79S SYLVANIA CLEAR 41 39 91 NW6 29.79S CLAXTON FAIR 42 40 93 SW5 29.80R ...CSRA...CENTRAL AND FAR SOUTHEAST GEORGIA... CITY SKY/WX TMP DP RH WIND PRES REMARKS THOMSON CLEAR 43 27 54 W6 29.81S AUGUSTA-BUSH CLEAR 37 29 72 W6 29.77R WCI 32 AUGUSTA-DANIEL CLEAR 45 21 38 W8 29.76R SWAINSBORO FAIR 37 32 81 CALM 29.81R VIDALIA CLEAR 43 32 65 W3 29.81R EASTMAN FAIR 43 27 52 W3 29.86R HAZLEHURST FAIR 42 37 84 W3 29.82R ALMA CLEAR 45 34 65 W7 29.83R WAYCROSS CLOUDY 48 40 73 NW8 29.83R JESUP MOCLDY 46 45 93 W3 29.83R BAXLEY FAIR 45 36 70 W5 29.83R BRUNSWICK CLOUDY 46 45 93 W6 29.82S SAINT SIMONS CLOUDY 48 46 93 W5 29.81R $$ SCZ027-028-034-036>038-045-046-048>050-GAZ119-141-090500- ...LAKE AND SUPPLEMENTAL COASTAL OBSERVATIONS... STATION/POSITION TIME TEMP WIND PRES WAVE SWELL AIR SEA DIR/SP/G HT/PER HT/PER/DIR (UTC) (F) (DEG/KT/KT) (MB) (FT/S) (FT/S/D) WINYAH BAY NOT AVBL LAKE MURRAY 0300 45 280/ 10/ 13 1005.4S ACE BASIN NERRS NOT AVBL FORT PULASKI 0300 47 53 270/ 8/ 10 1007.9R SAPELO ISLAND 0300 48 250/ 7 1009.0R $$ ANZ835-935-AMZ111-154-330-350-352-354-370-450-454-472-090500- ...C-MAN AND BUOY OBSERVATIONS... STATION/POSITION TIME TEMP WIND PRES WAVE SWELL AIR SEA DIR/SP/G HT/PER HT/PER/DIR (UTC) (F) (DEG/KT/KT) (MB) (FT/S) (FT/S/D) BUOY 41004 0350 50 65 310/ 14/ 17 1006.4R 7/ 8 5/ 8 BUOY 41008 0350 50 55 270/ 14/ 16 1009.2R 4/ 6 2/280/15 FOLLY BEACH CMAN 0400 45 250/ 4/ 5 1006.4F CAPERS NEARSHORE 0308 48 290/ 10/ 14 1005.9F FRIPP NEARSHORE NOT AVBL STATION/POSITION TIME TEMP WIND PRES WAVE SWELL AIR SEA DIR/SP/G HT/PER HT/PER/DIR (UTC) (F) (DEG/KT/KT) (MB) (FT/S) (FT/S/D) 5E ST. MARYS GA 0321 55 N/A 3/17 2/ 90/17 FRYING PAN BUOY 0300 52 62 290/ 23/ 29 1005.0F BUOY 41025 0350 54 74 320/ 10/ 14 1003.8F 11/16 11/ 90/16 CAPE LOOKOUT NC NOT AVBL BUOY 41002 0350 64 69 250/ 25/ 33 N/A 12/14 8/350/14 BUOY 41010 0320 68 73 1010.6F ST AUGUSTINE FL 0400 57 57 280/ 10/ 13 1010.6R $$

USA.gov is the U.S. government's official web portal to all federal, state and local government web resources and services.